OPS 0340

Satellite information

Favourite Embed

Satellite Type and Status

PAYLOADIN ORBIT

Key statistics

Satellite OPS 0340 at a glance.

Uptime

21808

Days in orbit

Revolutions

≈ 14.6

Per day

Orbit

SSO

Sun Synchronous Orbit

Inclination

98.0

Latest

Satellite identification and parameters

Extended collection of information and parameters for OPS 0340.

Object identification

Identified? True

Debris? False

Object name: OPS 0340

International designator: 1966-026A

Object number (NORAD): 2125

Object ID (CCSDS): 2125

Country: UNITED STATES OF AMERICA (US)

Current information (Y/N): Y

RCS size: MEDIUM

Orbital parameters

Period: 98.599 minutes

Inclination: 98.0128 deg

SMA: 7069.84 km

Apoapsis: 796.523 km

Periapsis: 586.887 km

RAAN: 156.4186 deg

Eccentricy: 0.01482608

Argument of periapsis: 107.3217 deg

Mean anomaly: 254.4264 deg

Mean motion: 14.60455782 rev/day

Mean motion (dot): 0.00001286 rev/day2

B* drag term: 0.00023623864 1/REarth

Two-line elements (TLE)

Creation date: Dec. 14, 2025, 3:07 a.m.

Reference frame: TEME

Reference center: EARTH

Epoch: Dec. 13, 2025, 10:24 a.m. UTC

TLE line 0: 0 OPS 0340

TLE line 1: 1 02125U 66026A 25347.43392889 .00001286 00000-0 23624-3 0 9994

TLE line 2: 2 02125 98.0128 156.4186 0148261 107.3217 254.4264 14.60455782132436

Live tracking on map

Real-time ground track for satellite OPS 0340.

In-orbit conjunctions

There are no conjunctions computed for OPS 0340, at the moment. Check back to stay up to date, as we update our databases every day.

Go to all conjunctions

Associated space launch

The DSAP-2 (Defense Satellite Application Program Block 2) satellites series consisted of three modified DSAP-1 military meteorological satellites.

OPS 0340 was lifted into orbit during the mission ‘Thor Burner 1 | DSAP-2 F3’, on board a Thor Burner 1 space rocket.

The launch took place on March 31, 1966, 5:41 a.m. from Space Launch Complex 10W.

For more information about the launch, click the button.

Launch to space Thor Burner 1 | DSAP-2 F3
Thor Burner 1 | DSAP-2 F3

Agency: N/A

Status: Launch Successful

Launch date: March 31, 1966, 5:41 a.m. UTC

Rocket: Thor Burner 1

Launch pad: Space Launch Complex 10W

Location: Vandenberg SFB, CA, USA

...

Latest news about this satellite

There are no fresh news available about this satellite. Check back as we update our databases every day.


Newsletter sign-up

Weekly statistics, charts and insights to help you stay on top of the space industry.